Location: Knowlton
(51.2333°N, 1.2667°E)
Time: 09:54:49
(UTC+00:00)

Meteor 2-8 Rocket - Pass Details

Date: 18 April 2021
Orbit: 935 x 959 km, 82.5° (Epoch: 16 May)

Event Time Altitude Azimuth Distance (km) Brightness Sun altitude
Exits shadow 21:42:19 34° 180° (S) 1,530 5.1 -21.4°
Maximum altitude 21:45:12 81° 98° (E) 972 4.3 -21.6°
Drops below altitude 10° 21:51:21 10° 12° (NNE) 2,686 7.4 -22.2°
Sets 21:53:51 0° 12° (NNE) 3,632 8.2 -22.4°
